FLOCK 4H-5 (66708 NORAD) Tracking and Keplerian Element Data

This shows tracking and keplerian element data for the satellite.

Feedback or suggestion? Click here.




ElementValue
Catalog66708
NameFLOCK 4H-5
Epoch Orbit325
Epoch Day354.18027272
Epoch Year2025
RAAN65.8315
Inclination97.4403
Eccentricity0.000122
Argument of Perigee112.8536
Mean Anonmoly247.2827
Mean Motion15.1813623
Decay Rate9.709E-05
L11 66708U 25276AU 25354.18027272 .00009709 00000+0 47866-3 0 9995
L22 66708 97.4403 65.8315 0001220 112.8536 247.2827 15.18136230 3257



Live tracking and technical data element details for FLOCK 4H-5 (NORAD 66708). FLOCK 4H-5 can be tracked NOW for your location showing map with azimuth and elevation plus other details from your city location.







IsCatalogInMostPopularTable: catalog: 66708, numindb: 19
Update: records affected: 1



GetName: 66708 FLOCK 4H-5

Hit Count: updated at: Sat, 11 Apr 2026 21:51:43 GMT